{"data":{"norad_id":23802,"intl_designator":"1996-013A","name":"POLAR","alt_names":[],"object_type":"PAYLOAD","status":"ACTIVE","operator":null,"country":"US","launch_date":"1996-02-24","launch_site_code":"AFWTR","launch_vehicle":null,"mission":null,"orbit_class":"UNKNOWN","rcs_meters":6.0269,"size_class":null,"mass_kg":null,"dimensions":null,"purposes":["science"],"wikipedia_slug":null,"has_3d_model":false,"image_url":null,"decayed_at":null,"tle_current":{"epoch":"2026-05-24T22:19:27.642720Z","epoch_age_seconds":91257,"freshness":"FRESH","line1":"1 23802U 96013A   26144.93018105  .00000009  00000+0  00000+0 0  9995","line2":"2 23802  79.8303 227.3240 6447172 209.8792  88.4229  1.29846063144556","mean_motion":1.29846063,"eccentricity":0.6447172,"inclination_deg":79.8303,"raan_deg":227.324,"arg_perigee_deg":209.8792,"mean_anomaly_deg":88.4229,"bstar":0,"rev_number":14455,"period_min":1109.0055152462,"perigee_km":6231.1394595505,"apogee_km":51994.218409769,"semimajor_km":35490.81593466,"source":"CELESTRAK","updated_at":"2026-05-25T13:38:24.606809Z"}}}